Year,Month,Day,Hour,Minute,Value (Times are PST for temperature in C)
2015,06,29,00,00,25.00
2015,06,29,00,01,25.00
2015,06,29,00,02,25.00
2015,06,29,00,03,25.00
2015,06,29,00,04,25.00
2015,06,29,00,05,25.00
2015,06,29,00,06,24.90
2015,06,29,00,07,24.90
2015,06,29,00,08,24.90
2015,06,29,00,09,24.90
2015,06,29,00,10,24.90
2015,06,29,00,11,24.90
2015,06,29,00,12,25.00
2015,06,29,00,13,25.00
2015,06,29,00,14,25.00
2015,06,29,00,15,25.00
2015,06,29,00,16,25.00
2015,06,29,00,17,25.00
2015,06,29,00,18,25.10
2015,06,29,00,19,25.10
2015,06,29,00,20,25.10
2015,06,29,00,21,25.10
2015,06,29,00,22,25.10
2015,06,29,00,23,25.10
2015,06,29,00,24,25.10
2015,06,29,00,25,25.10
2015,06,29,00,26,25.10
2015,06,29,00,27,25.10
2015,06,29,00,28,25.20
2015,06,29,00,29,25.20
2015,06,29,00,30,25.20
2015,06,29,00,31,25.20
2015,06,29,00,32,25.20
2015,06,29,00,33,25.20
2015,06,29,00,34,25.20
2015,06,29,00,35,25.20
2015,06,29,00,36,25.10
2015,06,29,00,37,25.10
2015,06,29,00,38,25.10
2015,06,29,00,39,25.10
2015,06,29,00,40,25.10
2015,06,29,00,41,25.00
2015,06,29,00,42,25.00
2015,06,29,00,43,24.90
2015,06,29,00,44,24.90
2015,06,29,00,45,24.90
2015,06,29,00,46,24.90
2015,06,29,00,47,25.00
2015,06,29,00,48,25.00
2015,06,29,00,49,24.90
2015,06,29,00,50,24.90
2015,06,29,00,51,24.80
2015,06,29,00,52,24.70
2015,06,29,00,53,24.60
2015,06,29,00,54,24.60
2015,06,29,00,55,24.50
2015,06,29,00,56,24.50
2015,06,29,00,57,24.40
2015,06,29,00,58,24.40
2015,06,29,00,59,24.50
2015,06,29,01,00,24.70
2015,06,29,01,01,24.80
2015,06,29,01,02,24.90
2015,06,29,01,03,25.00
2015,06,29,01,04,25.10
2015,06,29,01,05,25.10
2015,06,29,01,06,25.10
2015,06,29,01,07,25.10
2015,06,29,01,08,25.10
2015,06,29,01,09,25.00
2015,06,29,01,10,24.80
2015,06,29,01,11,24.70
2015,06,29,01,12,24.60
2015,06,29,01,13,24.50
2015,06,29,01,14,24.40
2015,06,29,01,15,24.40
2015,06,29,01,16,24.30
2015,06,29,01,17,24.20
2015,06,29,01,18,24.20
2015,06,29,01,19,24.10
2015,06,29,01,20,24.10
2015,06,29,01,21,24.10
2015,06,29,01,22,24.10
2015,06,29,01,23,24.10
2015,06,29,01,24,24.10
2015,06,29,01,25,24.10
2015,06,29,01,26,24.10
2015,06,29,01,27,24.20
2015,06,29,01,28,24.20
2015,06,29,01,29,24.20
2015,06,29,01,30,24.30
2015,06,29,01,31,24.30
2015,06,29,01,32,24.30
2015,06,29,01,33,24.30
2015,06,29,01,34,24.20
2015,06,29,01,35,24.20
2015,06,29,01,36,24.20
2015,06,29,01,37,24.10
2015,06,29,01,38,24.10
2015,06,29,01,39,24.00
2015,06,29,01,40,23.90
2015,06,29,01,41,23.80
2015,06,29,01,42,23.80
2015,06,29,01,43,23.60
2015,06,29,01,44,23.60
2015,06,29,01,45,23.50
2015,06,29,01,46,23.50
2015,06,29,01,47,23.40
2015,06,29,01,48,23.40
2015,06,29,01,49,23.40
2015,06,29,01,50,23.30
2015,06,29,01,51,23.20
2015,06,29,01,52,23.20
2015,06,29,01,53,23.10
2015,06,29,01,54,23.10
2015,06,29,01,55,23.00
2015,06,29,01,56,23.00
2015,06,29,01,57,23.00
2015,06,29,01,58,23.00
2015,06,29,01,59,22.90
2015,06,29,02,00,22.90
2015,06,29,02,01,22.90
2015,06,29,02,02,22.90
2015,06,29,02,03,22.90
2015,06,29,02,04,22.90
2015,06,29,02,05,22.80
2015,06,29,02,06,22.80
2015,06,29,02,07,22.80
2015,06,29,02,08,22.80
2015,06,29,02,09,22.80
2015,06,29,02,10,22.80
2015,06,29,02,11,22.80
2015,06,29,02,12,22.70
2015,06,29,02,13,22.70
2015,06,29,02,14,22.70
2015,06,29,02,15,22.60
2015,06,29,02,16,22.60
2015,06,29,02,17,22.60
2015,06,29,02,18,22.50
2015,06,29,02,19,22.40
2015,06,29,02,20,22.40
2015,06,29,02,21,22.30
2015,06,29,02,22,22.30
2015,06,29,02,23,22.30
2015,06,29,02,24,22.40
2015,06,29,02,25,22.50
2015,06,29,02,26,22.50
2015,06,29,02,27,22.50
2015,06,29,02,28,22.60
2015,06,29,02,29,22.50
2015,06,29,02,30,22.50
2015,06,29,02,31,22.40
2015,06,29,02,32,22.40
2015,06,29,02,33,22.40
2015,06,29,02,34,22.40
2015,06,29,02,35,22.40
2015,06,29,02,36,22.30
2015,06,29,02,37,22.30
2015,06,29,02,38,22.30
2015,06,29,02,39,22.40
2015,06,29,02,40,22.50
2015,06,29,02,41,22.50
2015,06,29,02,42,22.60
2015,06,29,02,43,22.70
2015,06,29,02,44,22.80
2015,06,29,02,45,22.80
2015,06,29,02,46,22.90
2015,06,29,02,47,23.00
2015,06,29,02,48,23.00
2015,06,29,02,49,23.10
2015,06,29,02,50,23.10
2015,06,29,02,51,23.20
2015,06,29,02,52,23.20
2015,06,29,02,53,23.20
2015,06,29,02,54,23.20
2015,06,29,02,55,23.20
2015,06,29,02,56,23.10
2015,06,29,02,57,23.00
2015,06,29,02,58,22.90
2015,06,29,02,59,22.80
2015,06,29,03,00,22.70
2015,06,29,03,01,22.60
2015,06,29,03,02,22.60
2015,06,29,03,03,22.60
2015,06,29,03,04,22.50
2015,06,29,03,05,22.40
2015,06,29,03,06,22.40
2015,06,29,03,07,22.30
2015,06,29,03,08,22.30
2015,06,29,03,09,22.30
2015,06,29,03,10,22.20
2015,06,29,03,11,22.20
2015,06,29,03,12,22.20
2015,06,29,03,13,22.10
2015,06,29,03,14,22.10
2015,06,29,03,15,22.10
2015,06,29,03,16,22.10
2015,06,29,03,17,22.00
2015,06,29,03,18,22.00
2015,06,29,03,19,22.00
2015,06,29,03,20,22.00
2015,06,29,03,21,22.00
2015,06,29,03,22,22.00
2015,06,29,03,23,22.00
2015,06,29,03,24,22.10
2015,06,29,03,25,22.10
2015,06,29,03,26,22.10
2015,06,29,03,27,22.10
2015,06,29,03,28,22.20
2015,06,29,03,29,22.20
2015,06,29,03,30,22.20
2015,06,29,03,31,22.20
2015,06,29,03,32,22.20
2015,06,29,03,33,22.20
2015,06,29,03,34,22.20
2015,06,29,03,35,22.10
2015,06,29,03,36,22.10
2015,06,29,03,37,22.00
2015,06,29,03,38,21.90
2015,06,29,03,39,21.90
2015,06,29,03,40,21.80
2015,06,29,03,41,21.80
2015,06,29,03,42,21.80
2015,06,29,03,43,21.80
2015,06,29,03,44,21.80
2015,06,29,03,45,21.80
2015,06,29,03,46,21.80
2015,06,29,03,47,21.80
2015,06,29,03,48,21.80
2015,06,29,03,49,21.70
2015,06,29,03,50,21.70
2015,06,29,03,51,21.70
2015,06,29,03,52,21.70
2015,06,29,03,53,21.70
2015,06,29,03,54,21.80
2015,06,29,03,55,21.80
2015,06,29,03,56,21.80
2015,06,29,03,57,21.90
2015,06,29,03,58,21.90
2015,06,29,03,59,21.90
2015,06,29,04,00,22.00
2015,06,29,04,01,21.90
2015,06,29,04,02,21.90
2015,06,29,04,03,21.80
2015,06,29,04,04,21.80
2015,06,29,04,05,21.80
2015,06,29,04,06,21.80
2015,06,29,04,07,21.80
2015,06,29,04,08,21.80
2015,06,29,04,09,21.80
2015,06,29,04,10,21.80
2015,06,29,04,11,21.80
2015,06,29,04,12,21.70
2015,06,29,04,13,21.70
2015,06,29,04,14,21.70
2015,06,29,04,15,21.70
2015,06,29,04,16,21.70
2015,06,29,04,17,21.70
2015,06,29,04,18,21.60
2015,06,29,04,19,21.60
2015,06,29,04,20,21.60
2015,06,29,04,21,21.60
2015,06,29,04,22,21.60
2015,06,29,04,23,21.60
2015,06,29,04,24,21.60
2015,06,29,04,25,21.60
2015,06,29,04,26,21.60
2015,06,29,04,27,21.60
2015,06,29,04,28,21.60
2015,06,29,04,29,21.60
2015,06,29,04,30,21.60
2015,06,29,04,31,21.60
2015,06,29,04,32,21.60
2015,06,29,04,33,21.60
2015,06,29,04,34,21.60
2015,06,29,04,35,21.60
2015,06,29,04,36,21.50
2015,06,29,04,37,21.50
2015,06,29,04,38,21.50
2015,06,29,04,39,21.40
2015,06,29,04,40,21.40
2015,06,29,04,41,21.40
2015,06,29,04,42,21.40
2015,06,29,04,43,21.40
2015,06,29,04,44,21.40
2015,06,29,04,45,21.40
2015,06,29,04,46,21.30
2015,06,29,04,47,21.40
2015,06,29,04,48,21.40
2015,06,29,04,49,21.40
2015,06,29,04,50,21.40
2015,06,29,04,51,21.50
2015,06,29,04,52,21.50
2015,06,29,04,53,21.60
2015,06,29,04,54,21.70
2015,06,29,04,55,21.70
2015,06,29,04,56,21.70
2015,06,29,04,57,21.70
2015,06,29,04,58,21.70
2015,06,29,04,59,21.60
2015,06,29,05,00,21.60
2015,06,29,05,01,21.60
2015,06,29,05,02,21.60
2015,06,29,05,03,21.60
2015,06,29,05,04,21.50
2015,06,29,05,05,21.50
2015,06,29,05,06,21.50
2015,06,29,05,07,21.50
2015,06,29,05,08,21.50
2015,06,29,05,09,21.40
2015,06,29,05,10,21.40
2015,06,29,05,11,21.40
2015,06,29,05,12,21.40
2015,06,29,05,13,21.40
2015,06,29,05,14,21.40
2015,06,29,05,15,21.30
2015,06,29,05,16,21.30
2015,06,29,05,17,21.30
2015,06,29,05,18,21.30
2015,06,29,05,19,21.30
2015,06,29,05,20,21.30
2015,06,29,05,21,21.30
2015,06,29,05,22,21.30
2015,06,29,05,23,21.30
2015,06,29,05,24,21.20
2015,06,29,05,25,21.20
2015,06,29,05,26,21.20
2015,06,29,05,27,21.20
2015,06,29,05,28,21.20
2015,06,29,05,29,21.20
2015,06,29,05,30,21.20
2015,06,29,05,31,21.20
2015,06,29,05,32,21.20
2015,06,29,05,33,21.10
2015,06,29,05,34,21.10
2015,06,29,05,35,21.00
2015,06,29,05,36,21.00
2015,06,29,05,37,20.90
2015,06,29,05,38,20.90
2015,06,29,05,39,20.80
2015,06,29,05,40,20.80
2015,06,29,05,41,20.80
2015,06,29,05,42,20.80
2015,06,29,05,43,20.80
2015,06,29,05,44,20.80
2015,06,29,05,45,20.80
2015,06,29,05,46,20.80
2015,06,29,05,47,20.80
2015,06,29,05,48,20.80
2015,06,29,05,49,20.80
2015,06,29,05,50,20.80
2015,06,29,05,51,20.80
2015,06,29,05,52,20.80
2015,06,29,05,53,20.80
2015,06,29,05,54,20.90
2015,06,29,05,55,20.90
2015,06,29,05,56,20.90
2015,06,29,05,57,20.90
2015,06,29,05,58,20.90
2015,06,29,05,59,21.00
2015,06,29,06,00,21.00
2015,06,29,06,01,21.00
2015,06,29,06,02,21.10
2015,06,29,06,03,21.10
2015,06,29,06,04,21.20
2015,06,29,06,05,21.20
2015,06,29,06,06,21.30
2015,06,29,06,07,21.30
2015,06,29,06,08,21.30
2015,06,29,06,09,21.40
2015,06,29,06,10,21.40
2015,06,29,06,11,21.40
2015,06,29,06,12,21.40
2015,06,29,06,13,21.40
2015,06,29,06,14,21.40
2015,06,29,06,15,21.40
2015,06,29,06,16,21.40
2015,06,29,06,17,21.40
2015,06,29,06,18,21.40
2015,06,29,06,19,21.40
2015,06,29,06,20,21.40
2015,06,29,06,21,21.40
2015,06,29,06,22,21.40
2015,06,29,06,23,21.40
2015,06,29,06,24,21.30
2015,06,29,06,25,21.30
2015,06,29,06,26,21.30
2015,06,29,06,27,21.30
2015,06,29,06,28,21.30
2015,06,29,06,29,21.30
2015,06,29,06,30,21.20
2015,06,29,06,31,21.20
2015,06,29,06,32,21.20
2015,06,29,06,33,21.10
2015,06,29,06,34,21.10
2015,06,29,06,35,21.10
2015,06,29,06,36,21.10
2015,06,29,06,37,21.10
2015,06,29,06,38,21.10
2015,06,29,06,39,21.10
2015,06,29,06,40,21.10
2015,06,29,06,41,21.10
2015,06,29,06,42,21.10
2015,06,29,06,43,21.10
2015,06,29,06,44,21.10
2015,06,29,06,45,21.10
2015,06,29,06,46,21.20
2015,06,29,06,47,21.20
2015,06,29,06,48,21.20
2015,06,29,06,49,21.20
2015,06,29,06,50,21.20
2015,06,29,06,51,21.20
2015,06,29,06,52,21.30
2015,06,29,06,53,21.30
2015,06,29,06,54,21.30
2015,06,29,06,55,21.40
2015,06,29,06,56,21.50
2015,06,29,06,57,21.60
2015,06,29,06,58,21.70
2015,06,29,06,59,21.80
2015,06,29,07,00,21.80
2015,06,29,07,01,21.90
2015,06,29,07,02,21.90
2015,06,29,07,03,22.00
2015,06,29,07,04,22.10
2015,06,29,07,05,22.30
2015,06,29,07,06,22.40
2015,06,29,07,07,22.50
2015,06,29,07,08,22.60
2015,06,29,07,09,22.70
2015,06,29,07,10,22.90
2015,06,29,07,11,23.00
2015,06,29,07,12,23.20
2015,06,29,07,13,23.30
2015,06,29,07,14,23.40
2015,06,29,07,15,23.60
2015,06,29,07,16,23.70
2015,06,29,07,17,23.80
2015,06,29,07,18,23.90
2015,06,29,07,19,24.00
2015,06,29,07,20,24.00
2015,06,29,07,21,24.00
2015,06,29,07,22,23.90
2015,06,29,07,23,23.90
2015,06,29,07,24,23.80
2015,06,29,07,25,23.80
2015,06,29,07,26,23.70
2015,06,29,07,27,23.70
2015,06,29,07,28,23.70
2015,06,29,07,29,23.60
2015,06,29,07,30,23.60
2015,06,29,07,31,23.50
2015,06,29,07,32,23.50
2015,06,29,07,33,23.50
2015,06,29,07,34,23.50
2015,06,29,07,35,23.50
2015,06,29,07,36,23.60
2015,06,29,07,37,23.60
2015,06,29,07,38,23.70
2015,06,29,07,39,23.70
2015,06,29,07,40,23.70
2015,06,29,07,41,23.70
2015,06,29,07,42,23.70
2015,06,29,07,43,23.70
2015,06,29,07,44,23.70
2015,06,29,07,45,23.80
2015,06,29,07,46,23.80
2015,06,29,07,47,23.80
2015,06,29,07,48,23.80
2015,06,29,07,49,23.90
2015,06,29,07,50,23.90
2015,06,29,07,51,24.00
2015,06,29,07,52,24.10
2015,06,29,07,53,24.10
2015,06,29,07,54,24.20
2015,06,29,07,55,24.20
2015,06,29,07,56,24.20
2015,06,29,07,57,24.20
2015,06,29,07,58,24.20
2015,06,29,07,59,24.20
2015,06,29,08,00,24.20
2015,06,29,08,01,24.20
2015,06,29,08,02,24.20
2015,06,29,08,03,24.20
2015,06,29,08,04,24.30
2015,06,29,08,05,24.30
2015,06,29,08,06,24.30
2015,06,29,08,07,24.30
2015,06,29,08,08,24.30
2015,06,29,08,09,24.30
2015,06,29,08,10,24.30
2015,06,29,08,11,24.30
2015,06,29,08,12,24.30
2015,06,29,08,13,24.30
2015,06,29,08,14,24.40
2015,06,29,08,15,24.40
2015,06,29,08,16,24.40
2015,06,29,08,17,24.40
2015,06,29,08,18,24.40
2015,06,29,08,19,24.40
2015,06,29,08,20,24.40
2015,06,29,08,21,24.30
2015,06,29,08,22,24.30
2015,06,29,08,23,24.30
2015,06,29,08,24,24.30
2015,06,29,08,25,24.30
2015,06,29,08,26,24.30
2015,06,29,08,27,24.30
2015,06,29,08,28,24.40
2015,06,29,08,29,24.40
2015,06,29,08,30,24.40
2015,06,29,08,31,24.30
2015,06,29,08,32,24.30
2015,06,29,08,33,24.20
2015,06,29,08,34,24.10
2015,06,29,08,35,24.10
2015,06,29,08,36,24.00
2015,06,29,08,37,24.00
2015,06,29,08,38,24.10
2015,06,29,08,39,24.10
2015,06,29,08,40,24.00
2015,06,29,08,41,24.00
2015,06,29,08,42,23.90
2015,06,29,08,43,23.90
2015,06,29,08,44,23.90
2015,06,29,08,45,23.90
2015,06,29,08,46,23.90
2015,06,29,08,47,23.90
2015,06,29,08,48,23.90
2015,06,29,08,49,23.80
2015,06,29,08,50,23.80
2015,06,29,08,51,23.80
2015,06,29,08,52,23.80
2015,06,29,08,53,23.80
2015,06,29,08,54,23.80
2015,06,29,08,55,23.80
2015,06,29,08,56,23.90
2015,06,29,08,57,23.90
2015,06,29,08,58,23.90
2015,06,29,08,59,24.00
2015,06,29,09,00,24.10
2015,06,29,09,01,24.10
2015,06,29,09,02,24.10
2015,06,29,09,03,24.10
2015,06,29,09,04,24.10
2015,06,29,09,05,24.10
2015,06,29,09,06,24.00
2015,06,29,09,07,24.00
2015,06,29,09,08,23.90
2015,06,29,09,09,23.90
2015,06,29,09,10,23.90
2015,06,29,09,11,23.90
2015,06,29,09,12,23.90
2015,06,29,09,13,23.90
2015,06,29,09,14,23.90
2015,06,29,09,15,24.00
2015,06,29,09,16,24.00
2015,06,29,09,17,24.10
2015,06,29,09,18,24.10
2015,06,29,09,19,24.20
2015,06,29,09,20,24.20
2015,06,29,09,21,24.10
2015,06,29,09,22,24.10
2015,06,29,09,23,24.00
2015,06,29,09,24,23.90
2015,06,29,09,25,23.80
2015,06,29,09,26,23.80
2015,06,29,09,27,23.80
2015,06,29,09,28,23.70
2015,06,29,09,29,23.70
2015,06,29,09,30,23.60
2015,06,29,09,31,23.60
2015,06,29,09,32,23.60
2015,06,29,09,33,23.70
2015,06,29,09,34,23.70
2015,06,29,09,35,23.80
2015,06,29,09,36,23.80
2015,06,29,09,37,23.80
2015,06,29,09,38,23.90
2015,06,29,09,39,23.90
2015,06,29,09,40,23.90
2015,06,29,09,41,23.90
2015,06,29,09,42,23.90
2015,06,29,09,43,23.90
2015,06,29,09,44,23.90
2015,06,29,09,45,23.90
2015,06,29,09,46,23.90
2015,06,29,09,47,23.90
2015,06,29,09,48,24.00
2015,06,29,09,49,24.00
2015,06,29,09,50,24.00
2015,06,29,09,51,23.90
2015,06,29,09,52,23.90
2015,06,29,09,53,23.90
2015,06,29,09,54,23.90
2015,06,29,09,55,23.80
2015,06,29,09,56,23.80
2015,06,29,09,57,23.80
2015,06,29,09,58,23.80
2015,06,29,09,59,23.80
2015,06,29,10,00,23.80
2015,06,29,10,01,23.80
2015,06,29,10,02,23.80
2015,06,29,10,03,23.90
2015,06,29,10,04,23.90
2015,06,29,10,05,23.90
2015,06,29,10,06,24.00
2015,06,29,10,07,23.90
2015,06,29,10,08,23.90
2015,06,29,10,09,23.90
2015,06,29,10,10,23.80
2015,06,29,10,11,23.70
2015,06,29,10,12,23.70
2015,06,29,10,13,23.70
2015,06,29,10,14,23.70
2015,06,29,10,15,23.70
2015,06,29,10,16,23.80
2015,06,29,10,17,23.80
2015,06,29,10,18,23.70
2015,06,29,10,19,23.70
2015,06,29,10,20,23.70
2015,06,29,10,21,23.80
2015,06,29,10,22,23.80
2015,06,29,10,23,23.80
2015,06,29,10,24,23.90
2015,06,29,10,25,24.00
2015,06,29,10,26,24.20
2015,06,29,10,27,24.20
2015,06,29,10,28,24.20
2015,06,29,10,29,24.20
2015,06,29,10,30,24.20
2015,06,29,10,31,24.20
2015,06,29,10,32,24.20
2015,06,29,10,33,24.10
2015,06,29,10,34,24.10
2015,06,29,10,35,24.20
2015,06,29,10,36,24.30
2015,06,29,10,37,24.30
2015,06,29,10,38,24.30
2015,06,29,10,39,24.30
2015,06,29,10,40,24.20
2015,06,29,10,41,24.20
2015,06,29,10,42,24.20
2015,06,29,10,43,24.10
2015,06,29,10,44,24.10
2015,06,29,10,45,24.00
2015,06,29,10,46,24.00
2015,06,29,10,47,23.90
2015,06,29,10,48,23.90
2015,06,29,10,49,23.80
2015,06,29,10,50,23.80
2015,06,29,10,51,23.80
2015,06,29,10,52,23.80
2015,06,29,10,53,23.80
2015,06,29,10,54,23.80
2015,06,29,10,55,23.80
2015,06,29,10,56,23.70
2015,06,29,10,57,23.70
2015,06,29,10,58,23.70
2015,06,29,10,59,23.70
2015,06,29,11,00,23.70
2015,06,29,11,01,23.80
2015,06,29,11,02,23.80
2015,06,29,11,03,23.90
2015,06,29,11,04,24.00
2015,06,29,11,05,24.10
2015,06,29,11,06,24.10
2015,06,29,11,07,24.20
2015,06,29,11,08,24.30
2015,06,29,11,09,24.30
2015,06,29,11,10,24.20
2015,06,29,11,11,24.20
2015,06,29,11,12,24.20
2015,06,29,11,13,24.20
2015,06,29,11,14,24.20
2015,06,29,11,15,24.20
2015,06,29,11,16,24.20
2015,06,29,11,17,24.20
2015,06,29,11,18,24.20
2015,06,29,11,19,24.20
2015,06,29,11,20,24.20
2015,06,29,11,21,24.30
2015,06,29,11,22,24.30
2015,06,29,11,23,24.40
2015,06,29,11,24,24.40
2015,06,29,11,25,24.40
2015,06,29,11,26,24.40
2015,06,29,11,27,24.40
2015,06,29,11,28,24.40
2015,06,29,11,29,24.30
2015,06,29,11,30,24.30
2015,06,29,11,31,24.20
2015,06,29,11,32,24.10
2015,06,29,11,33,24.10
2015,06,29,11,34,24.10
2015,06,29,11,35,24.10
2015,06,29,11,36,24.20
2015,06,29,11,37,24.20
2015,06,29,11,38,24.30
2015,06,29,11,39,24.20
2015,06,29,11,40,24.20
2015,06,29,11,41,24.30
2015,06,29,11,42,24.40
2015,06,29,11,43,24.40
2015,06,29,11,44,24.40
2015,06,29,11,45,24.40
2015,06,29,11,46,24.40
2015,06,29,11,47,24.30
2015,06,29,11,48,24.30
2015,06,29,11,49,24.40
2015,06,29,11,50,24.40
2015,06,29,11,51,24.50
2015,06,29,11,52,24.60
2015,06,29,11,53,24.80
2015,06,29,11,54,24.80
2015,06,29,11,55,24.80
2015,06,29,11,56,24.80
2015,06,29,11,57,24.80
2015,06,29,11,58,24.80
2015,06,29,11,59,24.90
2015,06,29,12,00,25.00
2015,06,29,12,01,25.00
2015,06,29,12,02,25.00
2015,06,29,12,03,25.00
2015,06,29,12,04,24.90
2015,06,29,12,05,24.90
2015,06,29,12,06,24.90
2015,06,29,12,07,24.90
2015,06,29,12,08,25.00
2015,06,29,12,09,25.00
2015,06,29,12,10,25.10
2015,06,29,12,11,25.10
2015,06,29,12,12,25.00
2015,06,29,12,13,24.90
2015,06,29,12,14,24.80
2015,06,29,12,15,24.80
2015,06,29,12,16,24.70
2015,06,29,12,17,24.70
2015,06,29,12,18,24.70
2015,06,29,12,19,24.70
2015,06,29,12,20,24.70
2015,06,29,12,21,24.70
2015,06,29,12,22,24.70
2015,06,29,12,23,24.70
2015,06,29,12,24,24.80
2015,06,29,12,25,24.80
2015,06,29,12,26,24.80
2015,06,29,12,27,24.80
2015,06,29,12,28,24.70
2015,06,29,12,29,24.70
2015,06,29,12,30,24.70
2015,06,29,12,31,24.60
2015,06,29,12,32,24.60
2015,06,29,12,33,24.50
2015,06,29,12,34,24.50
2015,06,29,12,35,24.60
2015,06,29,12,36,24.70
2015,06,29,12,37,24.80
2015,06,29,12,38,24.80
2015,06,29,12,39,24.80
2015,06,29,12,40,24.90
2015,06,29,12,41,25.00
2015,06,29,12,42,25.00
2015,06,29,12,43,25.10
2015,06,29,12,44,25.10
2015,06,29,12,45,25.20
2015,06,29,12,46,25.20
2015,06,29,12,47,25.10
2015,06,29,12,48,25.10
2015,06,29,12,49,25.00
2015,06,29,12,50,25.00
2015,06,29,12,51,24.90
2015,06,29,12,52,24.90
2015,06,29,12,53,25.00
2015,06,29,12,54,25.00
2015,06,29,12,55,25.10
2015,06,29,12,56,25.20
2015,06,29,12,57,25.20
2015,06,29,12,58,25.20
2015,06,29,12,59,25.20
2015,06,29,13,00,25.10
2015,06,29,13,01,24.90
2015,06,29,13,02,24.80
2015,06,29,13,03,24.80
2015,06,29,13,04,24.80
2015,06,29,13,05,24.80
2015,06,29,13,06,24.90
2015,06,29,13,07,25.00
2015,06,29,13,08,25.00
2015,06,29,13,09,25.10
2015,06,29,13,10,25.30
2015,06,29,13,11,25.40
2015,06,29,13,12,25.50
2015,06,29,13,13,25.50
2015,06,29,13,14,25.60
2015,06,29,13,15,25.60
2015,06,29,13,16,25.60
2015,06,29,13,17,25.60
2015,06,29,13,18,25.70
2015,06,29,13,19,25.70
2015,06,29,13,20,25.70
2015,06,29,13,21,25.70
2015,06,29,13,22,25.80
2015,06,29,13,23,25.80
2015,06,29,13,24,25.80
2015,06,29,13,25,25.90
2015,06,29,13,26,25.80
2015,06,29,13,27,25.70
2015,06,29,13,28,25.60
2015,06,29,13,29,25.60
2015,06,29,13,30,25.50
2015,06,29,13,31,25.50
2015,06,29,13,32,25.50
2015,06,29,13,33,25.60
2015,06,29,13,34,25.70
2015,06,29,13,35,25.70
2015,06,29,13,36,25.60
2015,06,29,13,37,25.60
2015,06,29,13,38,25.70
2015,06,29,13,39,25.70
2015,06,29,13,40,25.60
2015,06,29,13,41,25.50
2015,06,29,13,42,25.40
2015,06,29,13,43,25.40
2015,06,29,13,44,25.40
2015,06,29,13,45,25.40
2015,06,29,13,46,25.30
2015,06,29,13,47,25.40
2015,06,29,13,48,25.50
2015,06,29,13,49,25.60
2015,06,29,13,50,25.70
2015,06,29,13,51,25.80
2015,06,29,13,52,25.80
2015,06,29,13,53,25.80
2015,06,29,13,54,25.70
2015,06,29,13,55,25.60
2015,06,29,13,56,25.60
2015,06,29,13,57,25.50
2015,06,29,13,58,25.50
2015,06,29,13,59,25.40
2015,06,29,14,00,25.50
2015,06,29,14,01,25.60
2015,06,29,14,02,25.80
2015,06,29,14,03,25.80
2015,06,29,14,04,25.90
2015,06,29,14,05,25.90
2015,06,29,14,06,25.90
2015,06,29,14,07,25.90
2015,06,29,14,08,25.90
2015,06,29,14,09,25.90
2015,06,29,14,10,25.90
2015,06,29,14,11,25.90
2015,06,29,14,12,25.90
2015,06,29,14,13,25.90
2015,06,29,14,14,25.90
2015,06,29,14,15,25.90
2015,06,29,14,16,25.90
2015,06,29,14,17,25.90
2015,06,29,14,18,26.00
2015,06,29,14,19,26.00
2015,06,29,14,20,26.00
2015,06,29,14,21,26.10
2015,06,29,14,22,26.10
2015,06,29,14,23,26.10
2015,06,29,14,24,26.10
2015,06,29,14,25,26.10
2015,06,29,14,26,26.10
2015,06,29,14,27,26.00
2015,06,29,14,28,26.00
2015,06,29,14,29,26.00
2015,06,29,14,30,25.90
2015,06,29,14,31,25.90
2015,06,29,14,32,25.90
2015,06,29,14,33,25.80
2015,06,29,14,34,25.70
2015,06,29,14,35,25.50
2015,06,29,14,36,25.50
2015,06,29,14,37,25.40
2015,06,29,14,38,25.40
2015,06,29,14,39,25.40
2015,06,29,14,40,25.30
2015,06,29,14,41,25.30
2015,06,29,14,42,25.30
2015,06,29,14,43,25.20
2015,06,29,14,44,25.30
2015,06,29,14,45,25.40
2015,06,29,14,46,25.50
2015,06,29,14,47,25.60
2015,06,29,14,48,25.70
2015,06,29,14,49,25.70
2015,06,29,14,50,25.70
2015,06,29,14,51,25.70
2015,06,29,14,52,25.70
2015,06,29,14,53,25.70
2015,06,29,14,54,25.70
2015,06,29,14,55,25.80
2015,06,29,14,56,25.80
2015,06,29,14,57,25.90
2015,06,29,14,58,26.00
2015,06,29,14,59,26.20
2015,06,29,15,00,26.20
2015,06,29,15,01,26.20
2015,06,29,15,02,26.30
2015,06,29,15,03,26.30
2015,06,29,15,04,26.40
2015,06,29,15,05,26.40
2015,06,29,15,06,26.40
2015,06,29,15,07,26.40
2015,06,29,15,08,26.40
2015,06,29,15,09,26.30
2015,06,29,15,10,26.30
2015,06,29,15,11,26.20
2015,06,29,15,12,26.10
2015,06,29,15,13,26.10
2015,06,29,15,14,26.00
2015,06,29,15,15,26.00
2015,06,29,15,16,25.90
2015,06,29,15,17,25.90
2015,06,29,15,18,25.90
2015,06,29,15,19,25.90
2015,06,29,15,20,25.90
2015,06,29,15,21,25.90
2015,06,29,15,22,25.90
2015,06,29,15,23,25.90
2015,06,29,15,24,25.80
2015,06,29,15,25,25.70
2015,06,29,15,26,25.60
2015,06,29,15,27,25.50
2015,06,29,15,28,25.40
2015,06,29,15,29,25.30
2015,06,29,15,30,25.40
2015,06,29,15,31,25.40
2015,06,29,15,32,25.50
2015,06,29,15,33,25.50
2015,06,29,15,34,25.50
2015,06,29,15,35,25.60
2015,06,29,15,36,25.70
2015,06,29,15,37,25.70
2015,06,29,15,38,25.80
2015,06,29,15,39,25.90
2015,06,29,15,40,25.90
2015,06,29,15,41,25.80
2015,06,29,15,42,25.80
2015,06,29,15,43,25.70
2015,06,29,15,44,25.70
2015,06,29,15,45,25.70
2015,06,29,15,46,25.70
2015,06,29,15,47,25.70
2015,06,29,15,48,25.70
2015,06,29,15,49,25.70
2015,06,29,15,50,25.70
2015,06,29,15,51,25.70
2015,06,29,15,52,25.80
2015,06,29,15,53,25.80
2015,06,29,15,54,25.80
2015,06,29,15,55,25.90
2015,06,29,15,56,25.90
2015,06,29,15,57,25.90
2015,06,29,15,58,25.90
2015,06,29,15,59,25.90
2015,06,29,16,00,26.00
2015,06,29,16,01,26.10
2015,06,29,16,02,26.20
2015,06,29,16,03,26.20
2015,06,29,16,04,26.20
2015,06,29,16,05,26.20
2015,06,29,16,06,26.30
2015,06,29,16,07,26.30
2015,06,29,16,08,26.40
2015,06,29,16,09,26.50
2015,06,29,16,10,26.60
2015,06,29,16,11,26.60
2015,06,29,16,12,26.60
2015,06,29,16,13,26.60
2015,06,29,16,14,26.60
2015,06,29,16,15,26.60
2015,06,29,16,16,26.60
2015,06,29,16,17,26.60
2015,06,29,16,18,26.60
2015,06,29,16,19,26.60
2015,06,29,16,20,26.60
2015,06,29,16,21,26.70
2015,06,29,16,22,26.70
2015,06,29,16,23,26.70
2015,06,29,16,24,26.70
2015,06,29,16,25,26.80
2015,06,29,16,26,26.90
2015,06,29,16,27,26.90
2015,06,29,16,28,26.90
2015,06,29,16,29,27.00
2015,06,29,16,30,27.00
2015,06,29,16,31,27.00
2015,06,29,16,32,26.90
2015,06,29,16,33,26.90
2015,06,29,16,34,26.80
2015,06,29,16,35,26.60
2015,06,29,16,36,26.50
2015,06,29,16,37,26.30
2015,06,29,16,38,26.20
2015,06,29,16,39,26.20
2015,06,29,16,40,26.10
2015,06,29,16,41,26.10
2015,06,29,16,42,26.10
2015,06,29,16,43,26.10
2015,06,29,16,44,26.10
2015,06,29,16,45,26.20
2015,06,29,16,46,26.20
2015,06,29,16,47,26.20
2015,06,29,16,48,26.30
2015,06,29,16,49,26.40
2015,06,29,16,50,26.40
2015,06,29,16,51,26.50
2015,06,29,16,52,26.60
2015,06,29,16,53,26.70
2015,06,29,16,54,26.70
2015,06,29,16,55,26.70
2015,06,29,16,56,26.80
2015,06,29,16,57,26.80
2015,06,29,16,58,26.80
2015,06,29,16,59,26.80
2015,06,29,17,00,26.80
2015,06,29,17,01,26.80
2015,06,29,17,02,26.80
2015,06,29,17,03,26.80
2015,06,29,17,04,26.90
2015,06,29,17,05,27.00
2015,06,29,17,06,27.10
2015,06,29,17,07,27.20
2015,06,29,17,08,27.20
2015,06,29,17,09,27.10
2015,06,29,17,10,27.10
2015,06,29,17,11,27.10
2015,06,29,17,12,27.10
2015,06,29,17,13,27.10
2015,06,29,17,14,27.10
2015,06,29,17,15,27.10
2015,06,29,17,16,27.00
2015,06,29,17,17,26.90
2015,06,29,17,18,26.70
2015,06,29,17,19,26.60